contact:dominique.lefevre@mio.osupytheas.fr, maurice.libes@osupytheas.fr, didier.mallarino@osupytheas.fr
Project:EMSO http://www.emso-fr.org/EMSO-France
Depth: 2436.0 m
Title:EMSO Ligure Ouest : Data MII capteur MICROCAT
DateTime_Computer,Latitude,Longitude,Temperature,Conductivity,Pressure,DateTime_Instrument
DateTime_Computer,Latitude,Longitude,degC,S m-1,dbar,DateTime_Instrument
2020-01-08T00:00:29Z,42.805,6.029,13.2981,4.60009,2469.914,2020-1-08T02:01:01Z
2020-01-08T00:03:32Z,42.805,6.029,13.2976,4.60006,2469.876,2020-1-08T02:04:04Z
2020-01-08T00:06:35Z,42.805,6.029,13.2976,4.60014,2469.9,2020-1-08T02:07:07Z
2020-01-08T00:09:38Z,42.805,6.029,13.2978,4.60005,2469.886,2020-1-08T02:10:10Z
2020-01-08T00:12:42Z,42.805,6.029,13.2989,4.60020,2469.9,2020-1-08T02:13:14Z
2020-01-08T00:15:45Z,42.805,6.029,13.2965,4.59988,2469.914,2020-1-08T02:16:17Z
2020-01-08T00:18:48Z,42.805,6.029,13.2977,4.59994,2469.876,2020-1-08T02:19:20Z
2020-01-08T00:21:51Z,42.805,6.029,13.2976,4.60000,2469.923,2020-1-08T02:22:23Z
2020-01-08T00:24:55Z,42.805,6.029,13.2976,4.59997,2469.9,2020-1-08T02:25:27Z
2020-01-08T00:27:58Z,42.805,6.029,13.2979,4.60009,2469.9,2020-1-08T02:28:30Z
2020-01-08T00:31:01Z,42.805,6.029,13.2972,4.60004,2469.89,2020-1-08T02:31:33Z
2020-01-08T00:34:04Z,42.805,6.029,13.2982,4.59999,2469.914,2020-1-08T02:34:36Z
2020-01-08T00:37:07Z,42.805,6.029,13.2975,4.60002,2469.876,2020-1-08T02:37:39Z
2020-01-08T00:40:11Z,42.805,6.029,13.2980,4.60003,2469.923,2020-1-08T02:40:43Z
2020-01-08T00:43:14Z,42.805,6.029,13.2970,4.59986,2469.937,2020-1-08T02:43:46Z
2020-01-08T00:46:17Z,42.805,6.029,13.2970,4.59992,2469.9,2020-1-08T02:46:49Z
2020-01-08T00:49:20Z,42.805,6.029,13.2976,4.60011,2469.923,2020-1-08T02:49:52Z
2020-01-08T00:52:24Z,42.805,6.029,13.2969,4.59991,2469.923,2020-1-08T02:52:56Z
2020-01-08T00:55:27Z,42.805,6.029,13.2986,4.59997,2469.9,2020-1-08T02:55:59Z
2020-01-08T00:58:30Z,42.805,6.029,13.2976,4.60000,2469.923,2020-1-08T02:59:02Z
2020-01-08T01:01:33Z,42.805,6.029,13.2980,4.59986,2469.947,2020-1-08T03:02:05Z
2020-01-08T01:04:36Z,42.805,6.029,13.2977,4.60003,2469.937,2020-1-08T03:05:08Z
2020-01-08T01:07:40Z,42.805,6.029,13.2982,4.60013,2469.937,2020-1-08T03:08:12Z
2020-01-08T01:10:43Z,42.805,6.029,13.2975,4.60005,2469.923,2020-1-08T03:11:15Z
2020-01-08T01:13:46Z,42.805,6.029,13.2976,4.60012,2469.96,2020-1-08T03:14:18Z
2020-01-08T01:16:49Z,42.805,6.029,13.2974,4.60007,2469.923,2020-1-08T03:17:21Z
2020-01-08T01:19:53Z,42.805,6.029,13.2973,4.60016,2469.96,2020-1-08T03:20:25Z
2020-01-08T01:22:56Z,42.805,6.029,13.2978,4.60007,2469.947,2020-1-08T03:23:28Z
2020-01-08T01:25:59Z,42.805,6.029,13.2983,4.60020,2469.923,2020-1-08T03:26:31Z
2020-01-08T01:29:03Z,42.805,6.029,13.2979,4.60021,2469.937,2020-1-08T03:29:35Z
2020-01-08T01:32:06Z,42.805,6.029,13.2974,4.59997,2469.984,2020-1-08T03:32:38Z
2020-01-08T01:35:10Z,42.805,6.029,13.2982,4.60011,2469.96,2020-1-08T03:35:41Z
2020-01-08T01:38:13Z,42.805,6.029,13.2982,4.59992,2469.96,2020-1-08T03:38:45Z
2020-01-08T01:41:16Z,42.805,6.029,13.2983,4.60023,2469.947,2020-1-08T03:41:48Z
2020-01-08T01:44:19Z,42.805,6.029,13.2969,4.60019,2469.984,2020-1-08T03:44:51Z
2020-01-08T01:47:22Z,42.805,6.029,13.2982,4.60005,2469.984,2020-1-08T03:47:54Z
2020-01-08T01:50:26Z,42.805,6.029,13.2971,4.59985,2469.96,2020-1-08T03:50:57Z
2020-01-08T01:53:29Z,42.805,6.029,13.2974,4.59999,2470.007,2020-1-08T03:54:01Z
2020-01-08T01:56:32Z,42.805,6.029,13.2975,4.60024,2469.97,2020-1-08T03:57:04Z
2020-01-08T01:59:35Z,42.805,6.029,13.2972,4.60010,2469.984,2020-1-08T04:00:07Z
2020-01-08T02:02:38Z,42.805,6.029,13.2978,4.59987,2469.984,2020-1-08T04:03:10Z
2020-01-08T02:05:42Z,42.805,6.029,13.2971,4.60017,2470.007,2020-1-08T04:06:14Z
2020-01-08T02:08:45Z,42.805,6.029,13.2990,4.60026,2469.96,2020-1-08T04:09:17Z
2020-01-08T02:11:48Z,42.805,6.029,13.2974,4.59993,2469.97,2020-1-08T04:12:20Z
2020-01-08T02:14:51Z,42.805,6.029,13.2983,4.60001,2469.97,2020-1-08T04:15:23Z
2020-01-08T02:17:54Z,42.805,6.029,13.2986,4.60024,2470.017,2020-1-08T04:18:26Z
2020-01-08T02:20:58Z,42.805,6.029,13.2983,4.60029,2469.984,2020-1-08T04:21:30Z
2020-01-08T02:24:01Z,42.805,6.029,13.2982,4.60016,2469.984,2020-1-08T04:24:33Z
2020-01-08T02:27:04Z,42.805,6.029,13.2976,4.60028,2470.007,2020-1-08T04:27:36Z
2020-01-08T02:30:08Z,42.805,6.029,13.2973,4.60011,2470.017,2020-1-08T04:30:39Z
2020-01-08T02:33:11Z,42.805,6.029,13.2979,4.60011,2469.97,2020-1-08T04:33:43Z
2020-01-08T02:36:14Z,42.805,6.029,13.2980,4.60016,2469.993,2020-1-08T04:36:46Z
2020-01-08T02:39:17Z,42.805,6.029,13.2991,4.60016,2470.017,2020-1-08T04:39:49Z
2020-01-08T02:42:20Z,42.805,6.029,13.2973,4.60033,2470.03,2020-1-08T04:42:52Z
2020-01-08T02:45:24Z,42.805,6.029,13.2979,4.60035,2470.053,2020-1-08T04:45:56Z
2020-01-08T02:48:27Z,42.805,6.029,13.2990,4.60052,2469.993,2020-1-08T04:48:59Z
2020-01-08T02:51:30Z,42.805,6.029,13.2983,4.60044,2470.017,2020-1-08T04:52:02Z
2020-01-08T02:54:33Z,42.805,6.029,13.3006,4.60051,2470.017,2020-1-08T04:55:05Z
2020-01-08T02:57:36Z,42.805,6.029,13.2998,4.60059,2470.017,2020-1-08T04:58:08Z
2020-01-08T03:00:40Z,42.805,6.029,13.2999,4.60039,2470.017,2020-1-08T05:01:12Z
2020-01-08T03:03:43Z,42.805,6.029,13.2976,4.60049,2470.017,2020-1-08T05:04:15Z
2020-01-08T03:06:46Z,42.805,6.029,13.2989,4.60016,2470.017,2020-1-08T05:07:18Z
2020-01-08T03:09:49Z,42.805,6.029,13.3007,4.60011,2470.017,2020-1-08T05:10:21Z
2020-01-08T03:12:53Z,42.805,6.029,13.3010,4.60011,2470.03,2020-1-08T05:13:25Z
2020-01-08T03:15:56Z,42.805,6.029,13.2995,4.60045,2470.053,2020-1-08T05:16:28Z
2020-01-08T03:18:59Z,42.805,6.029,13.3036,4.60006,2470.04,2020-1-08T05:19:31Z
2020-01-08T03:22:02Z,42.805,6.029,13.3028,4.60020,2470.03,2020-1-08T05:22:34Z
2020-01-08T03:25:05Z,42.805,6.029,13.2975,4.60050,2470.053,2020-1-08T05:25:37Z
2020-01-08T03:28:09Z,42.805,6.029,13.2991,4.60046,2470.04,2020-1-08T05:28:41Z
2020-01-08T03:31:12Z,42.805,6.029,13.2996,4.60040,2470.063,2020-1-08T05:31:44Z
2020-01-08T03:34:15Z,42.805,6.029,13.2995,4.60034,2470.077,2020-1-08T05:34:47Z
2020-01-08T03:37:18Z,42.805,6.029,13.3002,4.60052,2470.04,2020-1-08T05:37:50Z
2020-01-08T03:40:22Z,42.805,6.029,13.2990,4.60045,2470.053,2020-1-08T05:40:53Z
2020-01-08T03:43:25Z,42.805,6.029,13.2985,4.60009,2470.04,2020-1-08T05:43:57Z
2020-01-08T03:46:28Z,42.805,6.029,13.2983,4.60060,2470.04,2020-1-08T05:47:00Z
2020-01-08T03:49:31Z,42.805,6.029,13.2983,4.60024,2470.053,2020-1-08T05:50:03Z
2020-01-08T03:52:34Z,42.805,6.029,13.2988,4.60042,2470.077,2020-1-08T05:53:06Z
2020-01-08T03:55:38Z,42.805,6.029,13.3009,4.60000,2470.04,2020-1-08T05:56:10Z
2020-01-08T03:58:41Z,42.805,6.029,13.3018,4.59991,2470.063,2020-1-08T05:59:13Z
2020-01-08T04:01:44Z,42.805,6.029,13.3016,4.60011,2470.063,2020-1-08T06:02:16Z
2020-01-08T04:04:47Z,42.805,6.029,13.3031,4.60033,2470.063,2020-1-08T06:05:19Z
2020-01-08T04:07:50Z,42.805,6.029,13.2994,4.60074,2470.053,2020-1-08T06:08:22Z
2020-01-08T04:10:54Z,42.805,6.029,13.3014,4.60040,2470.077,2020-1-08T06:11:26Z
2020-01-08T04:13:57Z,42.805,6.029,13.3014,4.60024,2470.1,2020-1-08T06:14:29Z
2020-01-08T04:17:00Z,42.805,6.029,13.3046,4.60021,2470.063,2020-1-08T06:17:32Z
2020-01-08T04:20:03Z,42.805,6.029,13.3064,4.60003,2470.063,2020-1-08T06:20:35Z
2020-01-08T04:23:07Z,42.805,6.029,13.2992,4.59997,2470.1,2020-1-08T06:23:38Z
2020-01-08T04:26:10Z,42.805,6.029,13.2992,4.59999,2470.11,2020-1-08T06:26:42Z
2020-01-08T04:29:13Z,42.805,6.029,13.2999,4.60009,2470.063,2020-1-08T06:29:45Z
2020-01-08T04:32:16Z,42.805,6.029,13.2997,4.60029,2470.124,2020-1-08T06:32:48Z
2020-01-08T04:35:20Z,42.805,6.029,13.3024,4.60028,2470.087,2020-1-08T06:35:52Z
2020-01-08T04:38:23Z,42.805,6.029,13.3044,4.60019,2470.073,2020-1-08T06:38:55Z
2020-01-08T04:41:26Z,42.805,6.029,13.2988,4.60064,2470.087,2020-1-08T06:41:58Z
2020-01-08T04:44:29Z,42.805,6.029,13.2998,4.60062,2470.087,2020-1-08T06:45:01Z
2020-01-08T04:47:32Z,42.805,6.029,13.2998,4.60064,2470.124,2020-1-08T06:48:04Z
2020-01-08T04:50:36Z,42.805,6.029,13.3013,4.60080,2470.11,2020-1-08T06:51:08Z
2020-01-08T04:53:39Z,42.805,6.029,13.3000,4.60038,2470.124,2020-1-08T06:54:11Z
2020-01-08T04:56:42Z,42.805,6.029,13.3006,4.60007,2470.124,2020-1-08T06:57:14Z
2020-01-08T04:59:45Z,42.805,6.029,13.3026,4.60019,2470.077,2020-1-08T07:00:17Z
2020-01-08T05:02:49Z,42.805,6.029,13.3017,4.59999,2470.124,2020-1-08T07:03:20Z
2020-01-08T05:05:52Z,42.805,6.029,13.3004,4.60006,2470.077,2020-1-08T07:06:24Z
2020-01-08T05:08:56Z,42.805,6.029,13.2998,4.60029,2470.124,2020-1-08T07:09:27Z
2020-01-08T05:11:59Z,42.805,6.029,13.2995,4.60013,2470.087,2020-1-08T07:12:31Z
2020-01-08T05:15:02Z,42.805,6.029,13.3050,4.60003,2470.124,2020-1-08T07:15:34Z
2020-01-08T05:18:05Z,42.805,6.029,13.3004,4.60007,2470.087,2020-1-08T07:18:37Z
2020-01-08T05:21:08Z,42.805,6.029,13.3003,4.59988,2470.1,2020-1-08T07:21:40Z
2020-01-08T05:24:12Z,42.805,6.029,13.2996,4.59990,2470.124,2020-1-08T07:24:44Z
2020-01-08T05:27:15Z,42.805,6.029,13.3003,4.60049,2470.124,2020-1-08T07:27:47Z
2020-01-08T05:30:18Z,42.805,6.029,13.3003,4.59986,2470.124,2020-1-08T07:30:50Z
2020-01-08T05:33:22Z,42.805,6.029,13.2996,4.59978,2470.11,2020-1-08T07:33:54Z
2020-01-08T05:36:25Z,42.805,6.029,13.2988,4.59999,2470.11,2020-1-08T07:36:57Z
2020-01-08T05:39:28Z,42.805,6.029,13.2990,4.60004,2470.087,2020-1-08T07:40:00Z
2020-01-08T05:42:31Z,42.805,6.029,13.3016,4.60019,2470.1,2020-1-08T07:43:03Z
2020-01-08T05:45:35Z,42.805,6.029,13.2991,4.60021,2470.11,2020-1-08T07:46:06Z
2020-01-08T05:48:38Z,42.805,6.029,13.3005,4.59994,2470.087,2020-1-08T07:49:10Z
2020-01-08T05:51:41Z,42.805,6.029,13.2989,4.60003,2470.1,2020-1-08T07:52:13Z
2020-01-08T05:54:44Z,42.805,6.029,13.2997,4.59998,2470.11,2020-1-08T07:55:16Z
2020-01-08T05:57:47Z,42.805,6.029,13.3034,4.60004,2470.1,2020-1-08T07:58:19Z
2020-01-08T06:00:51Z,42.805,6.029,13.3022,4.59997,2470.124,2020-1-08T08:01:22Z
2020-01-08T06:03:54Z,42.805,6.029,13.2991,4.60003,2470.147,2020-1-08T08:04:26Z
2020-01-08T06:06:57Z,42.805,6.029,13.2993,4.60033,2470.124,2020-1-08T08:07:29Z
2020-01-08T06:10:00Z,42.805,6.029,13.2998,4.60019,2470.087,2020-1-08T08:10:32Z
2020-01-08T06:13:03Z,42.805,6.029,13.3009,4.60004,2470.147,2020-1-08T08:13:35Z
2020-01-08T06:16:07Z,42.805,6.029,13.3011,4.60044,2470.087,2020-1-08T08:16:39Z
2020-01-08T06:19:10Z,42.805,6.029,13.3012,4.60026,2470.087,2020-1-08T08:19:42Z
2020-01-08T06:22:13Z,42.805,6.029,13.3012,4.60037,2470.11,2020-1-08T08:22:45Z
2020-01-08T06:25:17Z,42.805,6.029,13.3009,4.60021,2470.087,2020-1-08T08:25:48Z
2020-01-08T06:28:20Z,42.805,6.029,13.3006,4.60035,2470.124,2020-1-08T08:28:52Z
2020-01-08T06:31:23Z,42.805,6.029,13.3016,4.60050,2470.124,2020-1-08T08:31:55Z
2020-01-08T06:34:26Z,42.805,6.029,13.3020,4.60058,2470.124,2020-1-08T08:34:58Z
2020-01-08T06:37:29Z,42.805,6.029,13.3022,4.60015,2470.124,2020-1-08T08:38:01Z
2020-01-08T06:40:32Z,42.805,6.029,13.3012,4.60025,2470.124,2020-1-08T08:41:04Z
2020-01-08T06:43:36Z,42.805,6.029,13.3035,4.59994,2470.124,2020-1-08T08:44:08Z
2020-01-08T06:46:39Z,42.805,6.029,13.3016,4.59994,2470.077,2020-1-08T08:47:11Z
2020-01-08T06:49:42Z,42.805,6.029,13.3020,4.60004,2470.1,2020-1-08T08:50:14Z
2020-01-08T06:52:45Z,42.805,6.029,13.3033,4.60020,2470.1,2020-1-08T08:53:17Z
2020-01-08T06:55:49Z,42.805,6.029,13.3041,4.60011,2470.087,2020-1-08T08:56:21Z
2020-01-08T06:58:52Z,42.805,6.029,13.3032,4.60014,2470.124,2020-1-08T08:59:24Z
2020-01-08T07:01:55Z,42.805,6.029,13.3015,4.60003,2470.124,2020-1-08T09:02:27Z
2020-01-08T07:04:58Z,42.805,6.029,13.3019,4.60011,2470.1,2020-1-08T09:05:30Z
2020-01-08T07:08:02Z,42.805,6.029,13.3027,4.60002,2470.087,2020-1-08T09:08:34Z
2020-01-08T07:11:05Z,42.805,6.029,13.3009,4.60024,2470.1,2020-1-08T09:11:37Z
2020-01-08T07:14:08Z,42.805,6.029,13.3043,4.60013,2470.063,2020-1-08T09:14:40Z
2020-01-08T07:17:11Z,42.805,6.029,13.3036,4.60009,2470.1,2020-1-08T09:17:43Z
2020-01-08T07:20:15Z,42.805,6.029,13.3034,4.60029,2470.124,2020-1-08T09:20:46Z
2020-01-08T07:23:18Z,42.805,6.029,13.3025,4.60011,2470.087,2020-1-08T09:23:50Z
2020-01-08T07:26:21Z,42.805,6.029,13.3044,4.60022,2470.087,2020-1-08T09:26:53Z
2020-01-08T07:29:24Z,42.805,6.029,13.3043,4.60011,2470.087,2020-1-08T09:29:56Z
2020-01-08T07:32:27Z,42.805,6.029,13.3048,4.60023,2470.124,2020-1-08T09:32:59Z
2020-01-08T07:35:31Z,42.805,6.029,13.3048,4.60033,2470.114,2020-1-08T09:36:03Z
2020-01-08T07:38:34Z,42.805,6.029,13.3058,4.60046,2470.087,2020-1-08T09:39:06Z
2020-01-08T07:41:37Z,42.805,6.029,13.3053,4.60029,2470.124,2020-1-08T09:42:09Z
2020-01-08T07:44:40Z,42.805,6.029,13.3053,4.60044,2470.1,2020-1-08T09:45:12Z
2020-01-08T07:47:44Z,42.805,6.029,13.3039,4.60048,2470.1,2020-1-08T09:48:15Z
2020-01-08T07:50:47Z,42.805,6.029,13.2974,4.60049,2470.1,2020-1-08T09:51:19Z
2020-01-08T07:53:50Z,42.805,6.029,13.2983,4.60034,2470.087,2020-1-08T09:54:22Z
2020-01-08T07:56:53Z,42.805,6.029,13.2979,4.60050,2470.124,2020-1-08T09:57:25Z
2020-01-08T07:59:56Z,42.805,6.029,13.2970,4.60127,2470.11,2020-1-08T10:00:28Z
2020-01-08T08:03:00Z,42.805,6.029,13.2966,4.60021,2470.1,2020-1-08T10:03:31Z
2020-01-08T08:06:03Z,42.805,6.029,13.2964,4.60028,2470.124,2020-1-08T10:06:35Z
2020-01-08T08:09:06Z,42.805,6.029,13.2967,4.60023,2470.1,2020-1-08T10:09:38Z
2020-01-08T08:12:09Z,42.805,6.029,13.2966,4.60007,2470.087,2020-1-08T10:12:41Z
2020-01-08T08:15:12Z,42.805,6.029,13.2967,4.59998,2470.124,2020-1-08T10:15:44Z
2020-01-08T08:18:16Z,42.805,6.029,13.2965,4.59975,2470.087,2020-1-08T10:18:47Z
2020-01-08T08:21:19Z,42.805,6.029,13.2968,4.59972,2470.087,2020-1-08T10:21:51Z
2020-01-08T08:24:22Z,42.805,6.029,13.2967,4.59985,2470.063,2020-1-08T10:24:54Z
2020-01-08T08:27:25Z,42.805,6.029,13.2966,4.59973,2470.077,2020-1-08T10:27:57Z
2020-01-08T08:30:29Z,42.805,6.029,13.2967,4.59971,2470.087,2020-1-08T10:31:01Z
2020-01-08T08:33:32Z,42.805,6.029,13.2963,4.59970,2470.077,2020-1-08T10:34:04Z
2020-01-08T08:36:35Z,42.805,6.029,13.2967,4.59979,2470.053,2020-1-08T10:37:07Z
2020-01-08T08:39:38Z,42.805,6.029,13.2965,4.59971,2470.1,2020-1-08T10:40:10Z
2020-01-08T08:42:41Z,42.805,6.029,13.2964,4.59969,2470.087,2020-1-08T10:43:13Z
2020-01-08T08:45:45Z,42.805,6.029,13.2964,4.59968,2470.087,2020-1-08T10:46:17Z
2020-01-08T08:48:48Z,42.805,6.029,13.2967,4.59968,2470.087,2020-1-08T10:49:20Z
2020-01-08T08:51:51Z,42.805,6.029,13.2967,4.59980,2470.11,2020-1-08T10:52:23Z
2020-01-08T08:54:54Z,42.805,6.029,13.2964,4.59979,2470.1,2020-1-08T10:55:26Z
2020-01-08T08:57:58Z,42.805,6.029,13.2961,4.59979,2470.063,2020-1-08T10:58:29Z
2020-01-08T09:01:01Z,42.805,6.029,13.2967,4.59970,2470.053,2020-1-08T11:01:33Z
2020-01-08T09:04:04Z,42.805,6.029,13.2962,4.59968,2470.087,2020-1-08T11:04:36Z
2020-01-08T09:07:07Z,42.805,6.029,13.2965,4.59968,2470.063,2020-1-08T11:07:39Z
2020-01-08T09:10:10Z,42.805,6.029,13.2965,4.59968,2470.087,2020-1-08T11:10:42Z
2020-01-08T09:13:14Z,42.805,6.029,13.2967,4.59967,2470.1,2020-1-08T11:13:46Z
2020-01-08T09:16:17Z,42.805,6.029,13.2967,4.59966,2470.063,2020-1-08T11:16:49Z
2020-01-08T09:19:20Z,42.805,6.029,13.2966,4.59966,2470.087,2020-1-08T11:19:52Z
2020-01-08T09:22:24Z,42.805,6.029,13.2964,4.59966,2470.04,2020-1-08T11:22:56Z
2020-01-08T09:25:27Z,42.805,6.029,13.2965,4.59968,2470.077,2020-1-08T11:25:59Z
2020-01-08T09:28:30Z,42.805,6.029,13.2964,4.59967,2470.053,2020-1-08T11:29:02Z
2020-01-08T09:31:33Z,42.805,6.029,13.2965,4.59968,2470.063,2020-1-08T11:32:05Z
2020-01-08T09:34:37Z,42.805,6.029,13.2968,4.59970,2470.063,2020-1-08T11:35:08Z
2020-01-08T09:37:40Z,42.805,6.029,13.2967,4.59969,2470.077,2020-1-08T11:38:12Z
2020-01-08T09:40:43Z,42.805,6.029,13.2967,4.59967,2470.063,2020-1-08T11:41:15Z
2020-01-08T09:43:46Z,42.805,6.029,13.2962,4.59967,2470.053,2020-1-08T11:44:18Z
2020-01-08T09:46:50Z,42.805,6.029,13.2964,4.59969,2470.077,2020-1-08T11:47:21Z
2020-01-08T09:49:53Z,42.805,6.029,13.2968,4.59967,2470.04,2020-1-08T11:50:25Z
2020-01-08T09:52:56Z,42.805,6.029,13.2966,4.59966,2470.04,2020-1-08T11:53:28Z
2020-01-08T09:55:59Z,42.805,6.029,13.2968,4.59967,2470.053,2020-1-08T11:56:31Z
2020-01-08T09:59:02Z,42.805,6.029,13.2962,4.59966,2470.063,2020-1-08T11:59:34Z
2020-01-08T10:02:06Z,42.805,6.029,13.2961,4.59970,2470.053,2020-1-08T12:02:38Z
2020-01-08T10:05:09Z,42.805,6.029,13.2967,4.59977,2470.053,2020-1-08T12:05:41Z
2020-01-08T10:08:12Z,42.805,6.029,13.2963,4.59967,2470.04,2020-1-08T12:08:44Z
2020-01-08T10:11:15Z,42.805,6.029,13.2966,4.59966,2470.063,2020-1-08T12:11:47Z
2020-01-08T10:14:19Z,42.805,6.029,13.2961,4.59977,2470.04,2020-1-08T12:14:50Z
2020-01-08T10:17:22Z,42.805,6.029,13.2968,4.59967,2470.03,2020-1-08T12:17:54Z
2020-01-08T10:20:25Z,42.805,6.029,13.2973,4.59976,2470.04,2020-1-08T12:20:57Z
2020-01-08T10:23:28Z,42.805,6.029,13.2968,4.59968,2470.04,2020-1-08T12:24:00Z
2020-01-08T10:26:31Z,42.805,6.029,13.2967,4.59966,2470.063,2020-1-08T12:27:03Z
2020-01-08T10:29:35Z,42.805,6.029,13.2965,4.59964,2470.04,2020-1-08T12:30:06Z
2020-01-08T10:32:38Z,42.805,6.029,13.2964,4.59964,2469.993,2020-1-08T12:33:10Z
2020-01-08T10:35:41Z,42.805,6.029,13.2964,4.59969,2470.04,2020-1-08T12:36:13Z
2020-01-08T10:38:44Z,42.805,6.029,13.2969,4.59968,2470.03,2020-1-08T12:39:16Z
2020-01-08T10:41:48Z,42.805,6.029,13.2965,4.59967,2470.017,2020-1-08T12:42:20Z
2020-01-08T10:44:51Z,42.805,6.029,13.2966,4.59970,2470.03,2020-1-08T12:45:23Z
2020-01-08T10:47:54Z,42.805,6.029,13.2966,4.59975,2470.03,2020-1-08T12:48:26Z
2020-01-08T10:50:57Z,42.805,6.029,13.2972,4.59966,2470.017,2020-1-08T12:51:29Z
2020-01-08T10:54:00Z,42.805,6.029,13.2968,4.59964,2470.007,2020-1-08T12:54:32Z
2020-01-08T10:57:04Z,42.805,6.029,13.2969,4.59964,2469.993,2020-1-08T12:57:36Z
2020-01-08T11:00:07Z,42.805,6.029,13.2968,4.59968,2470.017,2020-1-08T13:00:39Z
2020-01-08T11:03:10Z,42.805,6.029,13.2966,4.59964,2470.04,2020-1-08T13:03:42Z
2020-01-08T11:06:13Z,42.805,6.029,13.2965,4.59964,2470.017,2020-1-08T13:06:45Z
2020-01-08T11:09:16Z,42.805,6.029,13.2961,4.59964,2470.017,2020-1-08T13:09:48Z
2020-01-08T11:12:20Z,42.805,6.029,13.2967,4.59975,2470.03,2020-1-08T13:12:52Z
2020-01-08T11:15:23Z,42.805,6.029,13.2967,4.59974,2469.993,2020-1-08T13:15:55Z
2020-01-08T11:18:26Z,42.805,6.029,13.2963,4.59964,2470.04,2020-1-08T13:18:58Z
2020-01-08T11:21:29Z,42.805,6.029,13.2964,4.59971,2470.017,2020-1-08T13:22:01Z
2020-01-08T11:24:33Z,42.805,6.029,13.2967,4.59964,2470.03,2020-1-08T13:25:05Z
2020-01-08T11:27:36Z,42.805,6.029,13.2963,4.59968,2470.017,2020-1-08T13:28:08Z
2020-01-08T11:30:39Z,42.805,6.029,13.2965,4.59963,2470.053,2020-1-08T13:31:11Z
2020-01-08T11:33:42Z,42.805,6.029,13.2965,4.59964,2470.04,2020-1-08T13:34:14Z
2020-01-08T11:36:46Z,42.805,6.029,13.2967,4.59963,2469.97,2020-1-08T13:37:18Z
2020-01-08T11:39:49Z,42.805,6.029,13.2965,4.59967,2470.03,2020-1-08T13:40:21Z
2020-01-08T11:42:52Z,42.805,6.029,13.2964,4.59964,2469.97,2020-1-08T13:43:24Z
2020-01-08T11:45:55Z,42.805,6.029,13.2963,4.59964,2469.993,2020-1-08T13:46:27Z
2020-01-08T11:48:59Z,42.805,6.029,13.2966,4.59963,2470.053,2020-1-08T13:49:31Z
2020-01-08T11:52:02Z,42.805,6.029,13.2963,4.59965,2469.993,2020-1-08T13:52:34Z
2020-01-08T11:55:05Z,42.805,6.029,13.2964,4.59964,2469.993,2020-1-08T13:55:37Z
2020-01-08T11:58:08Z,42.805,6.029,13.2967,4.59963,2469.993,2020-1-08T13:58:40Z
2020-01-08T12:01:12Z,42.805,6.029,13.2964,4.59963,2470.007,2020-1-08T14:01:43Z
2020-01-08T12:04:15Z,42.805,6.029,13.2964,4.59963,2469.97,2020-1-08T14:04:47Z
2020-01-08T12:07:18Z,42.805,6.029,13.2966,4.59962,2469.97,2020-1-08T14:07:50Z
2020-01-08T12:10:21Z,42.805,6.029,13.2963,4.59963,2469.97,2020-1-08T14:10:53Z
2020-01-08T12:13:24Z,42.805,6.029,13.2961,4.59964,2469.993,2020-1-08T14:13:56Z
2020-01-08T12:16:28Z,42.805,6.029,13.2964,4.59962,2470.017,2020-1-08T14:17:00Z
2020-01-08T12:19:31Z,42.805,6.029,13.2964,4.59961,2469.993,2020-1-08T14:20:03Z
2020-01-08T12:22:34Z,42.805,6.029,13.2964,4.59963,2469.993,2020-1-08T14:23:06Z
2020-01-08T12:25:37Z,42.805,6.029,13.2961,4.59964,2469.97,2020-1-08T14:26:09Z
2020-01-08T12:28:41Z,42.805,6.029,13.2963,4.59962,2470.007,2020-1-08T14:29:13Z
2020-01-08T12:31:44Z,42.805,6.029,13.2964,4.59967,2470.007,2020-1-08T14:32:16Z
2020-01-08T12:34:47Z,42.805,6.029,13.2964,4.59963,2470.017,2020-1-08T14:35:19Z
2020-01-08T12:37:50Z,42.805,6.029,13.2962,4.59961,2469.979,2020-1-08T14:38:22Z
2020-01-08T12:40:54Z,42.805,6.029,13.2963,4.59961,2469.993,2020-1-08T14:41:25Z
2020-01-08T12:43:57Z,42.805,6.029,13.2967,4.59962,2469.984,2020-1-08T14:44:29Z
2020-01-08T12:47:00Z,42.805,6.029,13.2963,4.59964,2469.979,2020-1-08T14:47:32Z
2020-01-08T12:50:03Z,42.805,6.029,13.2961,4.59962,2470.017,2020-1-08T14:50:35Z
2020-01-08T12:53:06Z,42.805,6.029,13.2966,4.59963,2470.017,2020-1-08T14:53:38Z
2020-01-08T12:56:10Z,42.805,6.029,13.2961,4.59962,2469.984,2020-1-08T14:56:42Z
2020-01-08T12:59:13Z,42.805,6.029,13.2964,4.59961,2470.017,2020-1-08T14:59:45Z
2020-01-08T13:02:16Z,42.805,6.029,13.2961,4.59961,2470.007,2020-1-08T15:02:48Z
2020-01-08T13:05:19Z,42.805,6.029,13.2961,4.59962,2469.97,2020-1-08T15:05:51Z
2020-01-08T13:08:23Z,42.805,6.029,13.2964,4.59962,2470.03,2020-1-08T15:08:55Z
2020-01-08T13:11:26Z,42.805,6.029,13.2964,4.59963,2470.03,2020-1-08T15:11:58Z
2020-01-08T13:14:29Z,42.805,6.029,13.2962,4.59961,2470.017,2020-1-08T15:15:01Z
2020-01-08T13:17:32Z,42.805,6.029,13.2961,4.59962,2470.03,2020-1-08T15:18:04Z
2020-01-08T13:20:35Z,42.805,6.029,13.2964,4.59962,2470.017,2020-1-08T15:21:07Z
2020-01-08T13:23:39Z,42.805,6.029,13.2967,4.59963,2470.04,2020-1-08T15:24:11Z
2020-01-08T13:26:42Z,42.805,6.029,13.2961,4.59964,2470.017,2020-1-08T15:27:14Z
2020-01-08T13:29:45Z,42.805,6.029,13.2964,4.59961,2470.017,2020-1-08T15:30:17Z
2020-01-08T13:32:48Z,42.805,6.029,13.2961,4.59963,2469.993,2020-1-08T15:33:20Z
2020-01-08T13:35:51Z,42.805,6.029,13.2965,4.59962,2470.007,2020-1-08T15:36:23Z
2020-01-08T13:38:55Z,42.805,6.029,13.2961,4.59966,2470.007,2020-1-08T15:39:27Z
2020-01-08T13:41:58Z,42.805,6.029,13.2963,4.59961,2470.007,2020-1-08T15:42:30Z
2020-01-08T13:45:02Z,42.805,6.029,13.2967,4.59963,2470.053,2020-1-08T15:45:33Z
2020-01-08T13:48:05Z,42.805,6.029,13.2964,4.59963,2469.97,2020-1-08T15:48:37Z
2020-01-08T13:51:08Z,42.805,6.029,13.2966,4.59963,2470.03,2020-1-08T15:51:40Z
2020-01-08T13:54:11Z,42.805,6.029,13.2964,4.59964,2470.03,2020-1-08T15:54:43Z
2020-01-08T13:57:15Z,42.805,6.029,13.2964,4.59962,2470.03,2020-1-08T15:57:46Z
2020-01-08T14:00:18Z,42.805,6.029,13.2964,4.59963,2470.053,2020-1-08T16:00:50Z
2020-01-08T14:03:21Z,42.805,6.029,13.2960,4.59963,2470.026,2020-1-08T16:03:53Z
2020-01-08T14:06:24Z,42.805,6.029,13.2963,4.59961,2470.03,2020-1-08T16:06:56Z
2020-01-08T14:09:28Z,42.805,6.029,13.2962,4.59961,2470.003,2020-1-08T16:09:59Z
2020-01-08T14:12:31Z,42.805,6.029,13.2959,4.59963,2470.03,2020-1-08T16:13:03Z
2020-01-08T14:15:34Z,42.805,6.029,13.2958,4.59961,2470.04,2020-1-08T16:16:06Z
2020-01-08T14:18:37Z,42.805,6.029,13.2964,4.59961,2470.04,2020-1-08T16:19:09Z
2020-01-08T14:21:41Z,42.805,6.029,13.2960,4.59962,2470.053,2020-1-08T16:22:13Z
2020-01-08T14:24:44Z,42.805,6.029,13.2964,4.59964,2470.04,2020-1-08T16:25:16Z
2020-01-08T14:27:47Z,42.805,6.029,13.2960,4.59971,2470.03,2020-1-08T16:28:19Z
2020-01-08T14:30:50Z,42.805,6.029,13.2961,4.59965,2470.053,2020-1-08T16:31:22Z
2020-01-08T14:33:54Z,42.805,6.029,13.2964,4.59964,2470.03,2020-1-08T16:34:26Z
2020-01-08T14:36:57Z,42.805,6.029,13.2960,4.59963,2470.063,2020-1-08T16:37:29Z
2020-01-08T14:40:00Z,42.805,6.029,13.2962,4.59963,2470.04,2020-1-08T16:40:32Z
2020-01-08T14:43:03Z,42.805,6.029,13.2965,4.59961,2470.017,2020-1-08T16:43:35Z
2020-01-08T14:46:07Z,42.805,6.029,13.2967,4.59964,2470.077,2020-1-08T16:46:39Z
2020-01-08T14:49:10Z,42.805,6.029,13.2964,4.59969,2470.053,2020-1-08T16:49:42Z
2020-01-08T14:52:13Z,42.805,6.029,13.2964,4.59964,2470.053,2020-1-08T16:52:45Z
2020-01-08T14:55:16Z,42.805,6.029,13.2965,4.59965,2470.053,2020-1-08T16:55:48Z
2020-01-08T14:58:19Z,42.805,6.029,13.2965,4.59964,2470.017,2020-1-08T16:58:51Z
2020-01-08T15:01:23Z,42.805,6.029,13.2961,4.59965,2470.03,2020-1-08T17:01:55Z
2020-01-08T15:04:26Z,42.805,6.029,13.2967,4.59966,2470.063,2020-1-08T17:04:58Z
2020-01-08T15:07:29Z,42.805,6.029,13.2963,4.59964,2470.053,2020-1-08T17:08:01Z
2020-01-08T15:10:32Z,42.805,6.029,13.2964,4.59967,2470.053,2020-1-08T17:11:04Z
2020-01-08T15:13:35Z,42.805,6.029,13.2964,4.59973,2470.04,2020-1-08T17:14:07Z